Regional Weather Roundup
Issued by NWS Goodland, KS

Home | Current Version | Previous Version | Graphics & Text | Print | Product List | Glossary On
Versions: 1 2 3 4 5 6 7 8 9 10 11 12 13 14 15 16 17 18 19 20 21 22 23 24 25 26 27 28 29 30 31 32 33 34 35 36 37 38 39 40 41 42 43 44 45 46 47 48 49 50
567
ASUS43 KGLD 251059
RWRGLD

GOODLAND FORECAST AREA HOURLY WEATHER ROUNDUP
NATIONAL WEATHER SERVICE GOODLAND KS
400 AM MST SAT FEB 25 2017

...OFFICIAL OBSERVATIONS...

CITY           SKY/WX    TMP DP  RH WIND       PRES   REMARKS
GOODLAND KS    CLOUDY    18  15  88 SW8       30.05F
HILL CITY KS   CLEAR     10   7  87 W6        30.14F
IMPERIAL NEB   CLEAR     10   7  87 SW6       30.05F
MCCOOK NEB     CLEAR     10   7  87 W8        30.10F
AKRON CO       CLOUDY    16  11  80 SW9       29.96F
BURLINGTON CO  CLOUDY    20  16  84 S10       30.03F WCI   9
LIMON CO       PTCLDY    16  11  80 VRB5      29.97F
$$

...UNOFFICIAL OBSERVATIONS...

CITY           SKY/WX    TMP DP  RH WIND       PRES   REMARKS
LENORA KS        N/A     14  32 100 CALM        N/A
SHARON SPRINGS   N/A     16  13  87 CALM        N/A
TRENTON NEB      N/A     11  32 100 CALM        N/A
KIT CARSON CO    N/A     18  14  84 CALM        N/A
YUMA CO        FAIR       9   5  85 SW6       30.00S
$$




USA.gov is the U.S. government's official web portal to all federal, state and local government web resources and services.